Weather in Isfana

Kyrgyzstan     39°50′18″N   69°31′54″E
temp.,
°C
wind,
m/s
gust,
m/s
humid.,
%
clouds,
%
prec.,
mm/h
press.,
hPa
HPBL,
m
12 august, fri
fri1200:00+15wnw11440 0.0 101425
03:00+14ssw11510 0.0 101311
06:00+13ene01530 0.0 101310
09:00+16n21420 0.0 1014297
12:00+19nnw32360 0.0 1012901
15:00+22nnw32300 0.0 10111363
18:00+21nnw32300 0.0 10111413
21:00+18nw11370 0.0 1012110
13 august, sat
sat1300:00+17sw11400 0.0 101113
03:00+16wsw01460 0.0 101111
06:00+14ese01480 0.0 101111
09:00+19nne22340 0.0 1011378
12:00+22n32260 0.0 10101018
15:00+24nnw42250 0.0 10091376
18:00+23nnw33250 0.0 10091440
21:00+20nw11330 0.0 100955
14 august, sun
sun1400:00+19sse11370 0.0 100811
03:00+17sw00400 0.0 100811
06:00+16e01410 0.0 100811
09:00+21n11280 0.0 1008366
12:00+24nnw32240 0.0 10081039
15:00+25nnw32230 0.0 10071379
18:00+25nnw32240 0.0 10071520
21:00+21wsw01310 0.0 100828
15 august, mon
mon1500:00+19w11350 0.0 100811
03:00+18sw11370 0.0 100711
06:00+17ssw11370 0.0 100711
09:00+22nnw10250 0.0 1008312
12:00+25nnw33220 0.0 10071181
15:00+27nnw43200 0.0 10072054
18:00+26nnw43210 0.0 10071965
21:00+22w11280 0.0 100829
16 august, tue
tue1600:00+21wsw33290 0.0 100927
03:00+19sw22330 0.0 100911
06:00+17sw22330 0.0 100911
09:00+21wnw22260 0.0 1010644
12:00+24nnw43230 0.0 10091623
15:00+25nnw43230 0.0 10091911
18:00+24nw43241 0.0 10092138
21:00+21wnw222896 0.0 1011173